San Carlos, CA

3:38 PM PST on November 21, 2017 (GMT -0800)
San Carlos

Weather History for KSQL - March, 2014

Change the Weather History Date:

Monday, March 31, 2014

  Actual Average Record
Temperature  
Mean Temperature 50 °F -  
Max Temperature 55 °F 68 °F 86 °F (1966)
Min Temperature 44 °F 45 °F 35 °F (1977)
Degree Days  
Heating Degree Days 16    
Moisture  
Dew Point 43 °F    
Average Humidity 84    
Maximum Humidity 94    
Minimum Humidity 67    
Precipitation  
Precipitation 0.00 in - - ()
Sea Level Pressure  
Sea Level Pressure 29.97 in    
Wind  
Wind Speed 4 mph (SSE)    
Max Wind Speed 20 mph    
Max Gust Speed 24 mph    
Visibility 9 miles    
Events Rain    
Averages and records for this station are not official NWS values.
T = Trace of Precipitation, MM = Missing Value Source: NWS Daily Summary

Daily Weather History Graph

Daily Weather History Graph

Search for Another Location

Airport or City:

Trip Planner

Search our weather history database for the weather conditions in past years. The results will help you decide how hot, cold, wet, or windy it might be!

Date:

Astronomy

Mar. 31, 2014 Rise Set
Actual Time 6:55 AM PDT 7:30 PM PDT
Civil Twilight 6:29 AM PDT 7:57 PM PDT
Nautical Twilight 5:58 AM PDT 8:28 PM PDT
Astronomical Twilight 5:26 AM PDT 9:00 PM PDT
Moon 7:24 AM PDT (3/31) 8:53 PM PDT (3/31)
Length of Visible Light 13h 27m
Length of Day
12h 35m
New Moon, 1% of the Moon is Illuminated
Mar 31
New Moon
Apr 7
First Quarter
Apr 15
Full
Apr 22
Last Quarter
Apr 28
New

Hourly Weather History & Observations

Time (PDT) Temp. Windchill Dew Point Humidity Pressure Visibility Wind Dir Wind Speed Gust Speed Precip Events Conditions
12:15 AM 48.2 °F - 44.6 °F 87% 30.09 in 10.0 mi Calm Calm - N/A   Clear
12:35 AM 48.2 °F - 44.6 °F 87% 30.09 in 10.0 mi SSE 4.6 mph - N/A   Clear
12:55 AM 48.2 °F - 42.8 °F 82% 30.09 in 10.0 mi South 3.5 mph - N/A   Clear
1:15 AM 46.4 °F - 42.8 °F 87% 30.08 in 10.0 mi Calm Calm - N/A   Clear
1:35 AM 46.4 °F 44.3 °F 42.8 °F 87% 30.08 in 10.0 mi SW 4.6 mph - N/A   Partly Cloudy
1:55 AM 48.2 °F - 42.8 °F 82% 30.08 in 10.0 mi South 3.5 mph - N/A   Partly Cloudy
2:15 AM 48.2 °F - 44.6 °F 87% 30.07 in 10.0 mi SE 3.5 mph - N/A   Partly Cloudy
2:35 AM 46.4 °F 45.2 °F 42.8 °F 87% 30.07 in 10.0 mi South 3.5 mph - N/A   Clear
2:55 AM 46.4 °F 45.2 °F 42.8 °F 87% 30.06 in 10.0 mi SSW 3.5 mph - N/A   Scattered Clouds
3:15 AM 48.2 °F - 42.8 °F 82% 30.05 in 10.0 mi Calm Calm - N/A   Scattered Clouds
3:35 AM 46.4 °F 45.2 °F 42.8 °F 87% 30.04 in 10.0 mi SSE 3.5 mph - N/A   Mostly Cloudy
3:55 AM 46.4 °F 45.2 °F 44.6 °F 93% 30.04 in 10.0 mi South 3.5 mph - N/A   Mostly Cloudy
4:15 AM 48.2 °F - 44.6 °F 87% 30.03 in 10.0 mi Calm Calm - N/A   Mostly Cloudy
4:35 AM 48.2 °F - 44.6 °F 87% 30.02 in 10.0 mi SE 3.5 mph - N/A   Overcast
4:55 AM 48.2 °F - 44.6 °F 87% 30.02 in 10.0 mi Calm Calm - N/A   Overcast
5:15 AM 48.2 °F - 44.6 °F 87% 30.01 in 10.0 mi Calm Calm - N/A   Overcast
5:35 AM 48.2 °F - 42.8 °F 82% 30.00 in 10.0 mi Calm Calm - N/A   Overcast
5:55 AM 48.2 °F - 42.8 °F 82% 30.00 in 10.0 mi SSE 4.6 mph - N/A   Overcast
6:15 AM 48.2 °F - 42.8 °F 82% 29.99 in 10.0 mi SSE 6.9 mph - N/A   Overcast
6:35 AM 48.2 °F - 42.8 °F 82% 29.99 in 10.0 mi South 5.8 mph - N/A   Overcast
6:51 AM 48.2 °F - 42.8 °F 82% 29.98 in 10.0 mi SSE 6.9 mph - N/A   Overcast
6:55 AM 48.2 °F - 42.8 °F 82% 29.99 in 10.0 mi SSE 5.8 mph - N/A   Overcast
7:53 AM 50.0 °F - 44.6 °F 82% 29.98 in 10.0 mi SE 6.9 mph - N/A   Mostly Cloudy
8:50 AM 51.8 °F - 44.6 °F 76% 29.97 in 0.9 mi North - - N/A   Mostly Cloudy
9:47 AM 53.6 °F - 46.4 °F 77% 29.94 in 10.0 mi ESE 10.4 mph - N/A   Mostly Cloudy
10:47 AM 55.4 °F - 44.6 °F 67% 29.93 in 10.0 mi SSE 12.7 mph 17.3 mph N/A Rain Light Rain
11:50 AM 55.4 °F - 46.4 °F 72% 29.91 in 10.0 mi SE 19.6 mph 24.2 mph N/A   Mostly Cloudy
12:47 PM 55.4 °F - 46.4 °F 72% 29.89 in 5.0 mi SSE 16.1 mph 20.7 mph N/A Rain Light Rain
1:47 PM 50.0 °F - 48.2 °F 94% 29.89 in 3.0 mi SE 8.1 mph - N/A Rain Light Rain
2:05 PM 50.0 °F - 48.2 °F 94% 29.90 in 1.5 mi WSW 11.5 mph - N/A Rain Light Rain
2:55 PM 46.4 °F 42.9 °F 41.0 °F 81% 29.90 in 2.0 mi West 6.9 mph - N/A Rain Light Rain
3:10 PM 46.4 °F 42.4 °F 42.8 °F 87% 29.88 in 6.0 mi SE 8.1 mph - N/A Rain Light Rain
3:47 PM 48.2 °F - 42.8 °F 82% 29.86 in 10.0 mi ESE 5.8 mph - N/A   Overcast
4:47 PM 48.2 °F - 44.6 °F 87% 29.87 in 6.0 mi ESE 5.8 mph - N/A   Overcast
5:47 PM 48.2 °F - 42.8 °F 82% 29.87 in 10.0 mi SSW 5.8 mph - N/A   Mostly Cloudy
7:55 PM 48.2 °F - 41.0 °F 76% 29.88 in 10.0 mi South 4.6 mph - N/A   Scattered Clouds
8:47 PM 46.4 °F 45.2 °F 41.0 °F 81% 29.89 in 10.0 mi SSW 3.5 mph - N/A   Scattered Clouds
9:15 PM 46.4 °F 44.3 °F 41.0 °F 81% 29.89 in 10.0 mi SSW 4.6 mph - N/A   Clear
9:35 PM 46.4 °F - 42.8 °F 87% 29.90 in 10.0 mi Calm Calm - N/A   Clear
9:55 PM 46.4 °F - 42.8 °F 87% 29.91 in 10.0 mi Calm Calm - N/A   Clear
10:15 PM 46.4 °F 45.2 °F 42.8 °F 87% 29.92 in 10.0 mi South 3.5 mph - N/A   Clear
10:35 PM 44.6 °F - 41.0 °F 87% 29.92 in 10.0 mi Calm Calm - N/A   Clear
10:55 PM 44.6 °F - 41.0 °F 87% 29.93 in 10.0 mi Calm Calm - N/A   Clear
11:15 PM 44.6 °F 42.2 °F 41.0 °F 87% 29.92 in 10.0 mi SSE 4.6 mph - N/A   Clear
11:35 PM 44.6 °F 40.2 °F 41.0 °F 87% 29.93 in 10.0 mi SE 8.1 mph - N/A   Clear
11:55 PM 46.4 °F 43.5 °F 41.0 °F 81% 29.93 in 10.0 mi SSE 5.8 mph - N/A   Clear